    Orbital elements:
    2010 UD                                             PHA, Earth MOID = 0.0142 AU
    Epoch 2010 July 23.0 TT = JDT 2455400.5                 MPC
    M 353.76445              (2000.0)            P               Q
    n   0.85782473     Peri.  262.19046     +0.23406204     +0.95565309
    a   1.0969925      Node    23.79638     -0.62139755     +0.28843187
    e   0.2632156      Incl.   26.29206     -0.74771656     +0.05944935
    P   1.15           H   21.3           G   0.15           U   7
    Residuals in seconds of arc
    101017 G96  0.1-  0.2-    101017 H06  0.3-  0.5+    101017 300  0.0   0.1-
    101017 G96  0.0   0.3-    101017 H06  0.2-  0.5+    101017 E12  0.6+  0.5-
    101017 G96  0.4+  0.4-    101017 H06  0.2-  0.4+    101017 E12  0.1+  0.2-
    101017 G96  0.1-  0.2-    101017 G96  0.1-  0.0     101017 E12  0.2-  0.1+
    101017 G96  0.2+  0.3-    101017 G96  0.3-  0.0     101017 E12  0.2-  0.3+
    101017 G96  0.0   0.2-    101017 G96  0.1-  0.1+    101017 E12  0.1-  0.2+
    101017 G96  0.0   0.2-    101017 900  0.2+  0.1+    101017 113  0.3-  0.5+
    101017 H21  0.1+  0.0     101017 300  0.5+  0.1-    101017 113  0.3-  0.6+
    101017 H21  0.1+  0.1-    101017 300  0.3+  0.0     101017 113  0.1-  0.3+
    101017 H21  0.2+  0.1-    101017 900  0.2+  0.0     101017 213  0.4+  0.1-
    101017 H21  0.0   0.2-    101017 300  0.2-  0.0     101017 213  0.3-  0.1+
    101017 H21  0.1+  0.0     101017 300  0.0   0.3-    101017 213  0.1+  0.2-
    101017 H36  0.0   0.0     101017 900  0.0   0.0     101017 A17  0.1+  0.3-
    101017 H36  0.5+  0.1-    101017 300  0.0   0.2-    101017 J75  0.5-  0.4+
    101017 H36  0.1+  0.1+    101017 300  0.1+  0.3-    101017 J75  0.2+  0.3+
    101017 G96  0.1+  0.3-    101017 300  0.3-  0.5-    101017 A17  0.0   0.0
    101017 G96  0.1-  0.1-    101017 900  0.2-  0.0     101017 J95  0.0   0.2-
    101017 G96  0.0   0.1-    101017 300  0.1-  0.0     101017 J95  0.1+  0.1-
    101017 G96  0.1-  0.2-    101017 300  0.3+  0.3-    101017 J95  0.0   0.2-
    101017 854  1.2-  1.7+    101017 300  0.1-  0.2-    101017 A17  0.2+  0.3-
    101017 854  0.4-  0.2+    101017 300  0.2+  0.0     101017 J28  1.6-  0.5+
    101017 854  0.2-  0.5+    101017 300  0.1+  0.1-    101017 A17  0.0   0.1-
    101017 854  0.1-  0.6+    101017 300  0.3+  0.0     101017 J28  0.6-  0.8+
    101017 854  0.1-  0.5+    101017 900  0.1+  0.1+    101017 J28  0.8+  0.7+
    
    Ephemeris:
    2010 UD                  a,e,i = 1.10, 0.26, 26                  q = 0.8082
    Date    TT    R. A. (2000) Decl.     Delta      r     Elong.  Phase     V
    2010 10 11    04 21.87   -24 16.4    0.0607   1.032   122.7    54.5    17.3
    2010 10 16    02 18.63   +07 07.0    0.0594   1.055   166.1    13.1    16.1
    2010 10 21    00 51.20   +27 25.4    0.0864   1.077   159.4    19.0    17.1
    2010 10 26    00 02.27   +35 19.4    0.125    1.099   144.7    31.5    18.3
    2010 10 31    23 35.36   +38 39.0    0.168    1.120   136.2    37.9    19.2
    2010 11 05    23 20.46   +40 15.7    0.212    1.141   130.4    41.5    19.8
    2010 11 10    23 12.69   +41 08.3    0.258    1.161   126.0    43.6    20.4
    2010 11 15    23 09.48   +41 40.3    0.304    1.181   122.4    45.0    20.8
    2010 11 20    23 09.40   +42 02.3    0.351    1.199   119.3    45.9    21.2
    2010 11 25    23 11.58   +42 19.5    0.397    1.218   116.5    46.5    21.5
    2010 11 30    23 15.52   +42 34.5    0.444    1.235   113.9    46.9    21.8
    2010 12 05    23 20.88   +42 49.1    0.491    1.251   111.4    47.2    22.0
    2010 12 10    23 27.44   +43 04.7    0.537    1.267   109.1    47.3    22.2
    2010 12 15    23 35.03   +43 21.7    0.583    1.281   106.9    47.3    22.5
    2010 12 20    23 43.51   +43 40.6    0.629    1.295   104.7    47.3    22.6
    2010 12 25    23 52.77   +44 01.1    0.674    1.308   102.6    47.2    22.8
    2010 12 30    00 02.77   +44 23.3    0.718    1.320   100.6    47.1    23.0
    
    Carl W. Hergenrother         (C) Copyright 2010 MPC           M.P.E.C. 2010-U11
    

    Read MPEC 2010-U10 Read MPEC 2010-U12


    MPEC number:

    Enter an MPEC number in one of the following forms:

    • 1997-B01 (the full form)
    • J97B01 (the packed version of the full form)
    • B01 (the abbreviated form)